IRIDIUM 33 DEB

Satellite information

Favourite Embed

Satellite Type and Status

DEBRISIN ORBIT

Key statistics

Satellite IRIDIUM 33 DEB at a glance.

Uptime

10267

Days in orbit

Revolutions

≈ 14.5

Per day

Orbit

LEO

Low Earth Orbit

Inclination

86.4

Latest

Satellite identification and parameters

Extended collection of information and parameters for IRIDIUM 33 DEB.

Object identification

Identified? True

Debris? True

Object name: IRIDIUM 33 DEB

International designator: 1997-051RD

Object number (NORAD): 35631

Object ID (CCSDS): 35631

Country: UNITED STATES OF AMERICA (US)

Current information (Y/N): Y

RCS size: SMALL

Orbital parameters

Period: 99.508 minutes

Inclination: 86.3687 deg

SMA: 7113.228 km

Apoapsis: 745.677 km

Periapsis: 724.509 km

RAAN: 42.7694 deg

Eccentricy: 0.00148794

Argument of periapsis: 291.9812 deg

Mean anomaly: 245.5337 deg

Mean motion: 14.4711374 rev/day

Mean motion (dot): 0.00001713 rev/day2

B* drag term: 0.00046430415 1/REarth

Two-line elements (TLE)

Creation date: Oct. 23, 2025, 6:40 p.m.

Reference frame: TEME

Reference center: EARTH

Epoch: Oct. 23, 2025, 2:03 a.m. UTC

TLE line 0: 0 IRIDIUM 33 DEB

TLE line 1: 1 35631U 97051RD 25296.08589411 .00001713 00000-0 46430-3 0 9992

TLE line 2: 2 35631 86.3687 42.7694 0014879 291.9812 245.5337 14.47113740864640

Live tracking on map

Real-time ground track for satellite IRIDIUM 33 DEB.

In-orbit conjunctions

A list of the most updated potential collisions computed for object IRIDIUM 33 DEB.

Target Orbit TCA Probability of collision Miss distance Type
CZ-6A DEB SSO 2025-07-30 09:30:25 0.0002248452 33.0 (m) DEBRIS
CZ-6A DEB LEO 2025-03-04 20:30:02 0.0001093919 333.0 (m) DEBRIS
DMSP 5D-2 F13 DEB SSO 2024-12-11 17:27:12 0.0001194106 77.0 (m) DEBRIS

Associated space launch

Iridium provides global mobile telecommunications services using a constellation of 66 low earth orbit satellites in a 86.4° inclined orbit. Although 77 satellites were originally envisioned for the system and spawned the name based on the 77th element in the periodic table, the system has been scaled back. Motorola's Satellite Communications Group designed and manufactured the Iridium satellites with Lockheed Martin providing the LM-700A spacecraft buses.

IRIDIUM 33 DEB was lifted into orbit during the mission ‘Proton-K/17S40 | Iridium 27 to 33’, on board a Proton-K/17S40 space rocket.

The launch took place on Sept. 14, 1997, 1:36 a.m. from 81/23 (81L).

For more information about the launch, click the button.

Launch to space Proton-K/17S40 | Iridium 27 to 33
Proton-K/17S40 | Iridium 27 to 33

Agency: N/A

Status: Launch Successful

Launch date: Sept. 14, 1997, 1:36 a.m. UTC

Rocket: Proton-K/17S40

Launch pad: 81/23 (81L)

Location: Baikonur Cosmodrome, Republic of Kazakhstan

...

Latest news about this satellite

There are no fresh news available about this satellite. Check back as we update our databases every day.


Newsletter sign-up

Weekly statistics, charts and insights to help you stay on top of the space industry.